Theta_e
317 317 317 317 317 317 317 317 317 317 318 318 318 319 319 319 319 319 319 319 319 319 319 319 318 319 319 318 318 318 317 319 317 318 318 320 328 347 345 341 339 352 366 350 350 347 343 345 343 345 344 343 341 338 344 343 346 343 330 327 324 326 322 324 323 325 326 324 327 329 332 331 329 335 339 341 338 338 337 337 339 342 341 345 347 348 348 347
318 318 317 317 317 317 317 317 317 317 317 318 318 318 318 319 319 319 319 319 319 319 319 318 318 318 319 318 318 318 318 319 317 316 316 328 337 345 351 347 344 359 362 346 344 344 341 340 341 343 341 336 343 336 344 337 346 334 331 328 325 326 327 330 329 330 329 326 328 331 333 332 331 334 339 334 334 336 334 337 338 338 343 346 346 346 346 346
317 317 317 316 316 316 317 317 317 317 317 317 318 318 318 318 318 318 318 319 319 319 318 318 318 318 318 318 318 318 319 316 317 316 322 340 337 344 350 349 353 365 349 344 340 342 341 340 342 341 341 334 338 333 339 337 341 337 331 325 326 330 330 331 331 331 331 329 327 328 332 332 334 335 341 332 334 336 333 334 336 337 339 342 344 345 345 346
317 316 316 316 316 316 316 316 316 317 317 317 317 317 317 318 318 318 318 318 318 318 318 318 318 318 318 318 319 319 319 318 312 315 336 357 344 347 348 349 362 365 346 342 340 339 341 344 343 341 337 333 335 337 332 338 333 337 331 326 331 332 328 330 332 332 331 332 330 330 332 331 335 336 337 333 332 332 334 338 336 337 339 342 344 344 344 344
316 316 316 315 315 316 316 316 316 316 317 317 317 317 317 318 318 318 318 317 318 318 318 318 318 317 318 318 318 321 316 307 311 330 334 352 347 345 346 352 365 355 342 338 337 336 338 339 341 339 334 327 332 333 333 337 338 337 331 333 334 331 330 331 333 334 331 334 331 330 329 330 338 337 335 333 328 325 330 336 340 340 343 343 343 344 345 344
315 315 315 315 315 315 315 316 316 316 317 317 317 317 317 317 317 317 317 317 317 317 317 317 317 318 318 318 319 320 311 300 313 327 348 349 355 346 345 357 367 346 339 335 330 331 334 334 335 331 330 326 329 326 332 335 340 327 334 334 336 337 334 336 336 335 334 333 331 328 331 333 333 333 336 334 331 331 338 337 342 342 346 346 346 345 343 343
315 314 314 314 315 315 315 315 315 316 316 316 317 317 317 317 316 316 316 316 317 317 317 317 317 317 318 317 318 320 311 308 314 330 337 353 357 349 348 362 369 345 336 332 327 329 331 330 329 328 329 325 329 327 329 332 338 331 325 332 333 336 334 336 335 337 336 332 331 333 333 330 331 327 335 333 336 336 340 340 342 345 347 347 344 345 344 343
314 314 314 314 314 314 315 315 315 315 316 316 316 317 316 316 316 316 316 317 316 317 317 317 317 317 317 318 318 311 308 307 315 319 359 366 355 349 349 353 352 341 334 331 327 330 330 328 324 330 326 321 326 327 330 332 334 330 327 330 332 334 334 335 334 333 333 333 335 334 330 328 331 330 332 332 336 338 340 342 345 347 346 345 345 344 345 344
314 314 313 314 314 314 315 315 315 316 315 316 316 316 315 315 315 316 316 317 317 317 317 318 317 318 318 318 314 305 305 314 318 318 318 338 340 342 335 342 345 337 334 332 332 331 329 327 327 329 321 322 328 327 331 329 325 331 330 332 332 332 332 333 333 334 333 333 334 331 328 329 331 333 329 333 336 339 342 344 346 346 345 344 344 345 345 345
313 313 313 313 314 314 314 315 315 315 315 315 315 315 315 315 315 316 316 317 318 319 318 318 318 317 317 318 310 302 310 319 328 326 327 332 339 335 333 339 339 337 332 329 333 329 326 328 327 330 328 326 330 327 331 329 323 334 331 330 330 330 331 333 332 332 333 332 334 329 327 327 330 330 325 334 338 341 342 344 346 344 344 344 344 344 346 345
313 313 313 313 313 314 314 314 315 315 315 315 315 314 315 315 315 315 316 318 319 321 320 318 319 317 313 316 305 303 316 315 328 332 330 334 334 329 330 337 339 336 330 331 331 330 328 329 330 332 330 325 330 326 327 330 329 330 331 330 329 330 330 330 328 327 328 327 331 330 326 327 328 329 327 333 338 342 340 343 344 344 344 344 344 344 347 347
313 313 313 313 313 313 314 314 314 314 315 314 314 314 314 315 315 315 317 319 321 323 321 319 319 318 316 311 306 307 323 332 336 338 338 338 334 333 339 340 336 333 332 331 332 331 329 329 330 332 318 328 323 325 326 331 331 329 328 321 322 323 321 324 323 324 326 324 328 328 323 321 323 325 331 334 341 341 340 342 343 343 344 345 345 345 347 347
313 313 313 313 313 314 314 315 315 315 314 314 314 314 314 314 314 315 319 319 321 320 320 320 320 320 317 307 309 315 317 325 328 337 341 343 339 338 339 338 336 335 334 333 330 333 331 332 332 329 323 324 322 317 323 330 328 327 324 320 317 317 316 320 322 322 322 324 326 325 312 317 322 328 333 335 340 340 338 340 342 342 344 345 345 345 347 348
313 313 313 313 313 314 314 314 314 314 314 313 314 313 313 313 314 317 319 317 318 318 319 321 320 318 316 309 311 315 317 322 325 324 340 340 338 334 337 336 336 337 337 333 332 335 331 334 332 330 327 322 318 327 318 319 323 317 319 319 313 311 312 320 320 322 319 324 324 325 313 316 321 328 332 336 339 337 336 339 341 342 343 344 345 345 346 347
312 313 313 313 313 314 314 314 313 313 313 313 313 312 312 312 315 319 319 318 319 320 321 321 320 315 308 309 315 317 327 316 314 317 331 323 328 328 333 334 334 334 334 332 330 331 331 331 330 324 320 325 322 317 313 314 315 315 312 309 313 310 313 318 321 320 317 321 324 322 314 316 320 325 330 337 338 337 335 338 340 341 343 344 344 344 345 346
312 312 313 313 313 313 314 313 313 313 312 312 311 311 313 314 319 320 319 321 321 321 321 317 316 316 316 308 312 329 318 310 310 315 324 323 321 322 330 333 333 332 331 327 334 334 334 332 323 323 323 322 316 312 310 310 311 313 310 309 309 311 312 315 319 321 321 321 323 321 314 318 319 324 330 336 335 336 335 337 340 341 342 343 344 344 345 345
312 312 312 313 313 313 313 312 312 313 311 311 311 311 314 315 319 321 322 322 322 322 321 314 315 319 304 313 318 311 315 315 317 314 315 323 319 320 325 327 326 325 325 323 326 328 327 326 326 324 324 318 315 312 306 305 306 308 311 308 312 311 313 311 316 319 319 319 318 321 317 319 321 324 329 333 333 335 334 335 339 341 342 344 344 344 345 345
312 312 312 313 313 313 313 312 312 312 310 310 310 311 311 316 322 321 321 323 326 324 323 324 314 315 309 313 306 309 315 316 318 317 314 317 320 319 324 323 324 322 320 318 322 320 323 319 324 316 317 316 314 310 304 301 304 305 306 306 308 312 314 313 313 317 318 318 316 319 318 319 321 324 326 330 332 333 333 334 338 340 341 343 343 343 344 345
312 312 312 313 313 313 312 312 311 310 309 309 312 315 314 315 323 325 321 322 316 318 311 309 310 304 305 308 312 313 315 319 320 320 316 314 315 319 325 324 322 318 313 313 315 318 320 317 320 314 309 310 310 310 307 308 309 307 308 307 309 309 310 311 316 318 317 315 315 316 315 317 320 321 326 329 331 331 332 334 337 339 341 343 343 342 343 344
312 312 312 312 312 312 312 311 311 310 308 309 314 315 319 307 310 316 317 315 309 309 311 310 312 313 313 312 311 315 320 319 314 317 320 319 313 315 319 319 318 317 313 308 312 314 319 309 309 307 309 310 311 311 311 311 308 307 308 308 308 309 312 316 317 317 317 314 314 315 316 316 317 318 323 328 329 330 330 332 335 338 340 341 342 342 343 345
312 312 312 312 312 311 311 311 310 309 308 311 313 308 301 301 298 298 302 304 306 307 307 307 308 311 312 315 315 314 311 312 316 316 319 321 316 315 313 317 314 309 311 312 311 315 316 307 308 311 311 312 312 312 311 310 309 307 307 305 306 308 308 314 316 318 317 313 314 317 316 315 317 319 320 325 327 326 327 329 333 337 340 341 343 342 343 345
312 312 312 311 312 311 311 310 309 309 307 316 310 305 305 305 307 309 305 299 305 308 308 307 309 307 312 315 318 317 314 310 311 315 320 320 314 310 313 312 311 307 311 311 312 309 307 304 308 312 313 313 312 311 311 309 307 307 306 307 306 307 310 312 315 316 316 314 313 316 315 316 318 319 321 320 324 329 329 329 331 336 339 341 342 343 344 345
312 312 312 312 311 311 310 308 309 305 313 310 306 306 304 309 312 313 308 302 300 308 306 306 305 306 307 312 314 316 309 308 307 313 317 318 313 311 313 310 310 309 311 311 307 306 303 306 310 312 312 310 310 311 310 308 308 306 305 304 303 308 307 306 312 315 316 315 313 316 313 315 318 320 320 321 323 329 330 330 332 336 338 340 342 343 344 345
312 312 311 311 310 310 310 308 306 309 310 309 307 306 310 312 312 311 306 300 299 305 308 309 308 308 307 306 312 311 308 309 311 310 320 317 311 312 313 310 309 309 308 309 309 307 306 310 313 312 312 310 308 309 308 306 304 306 305 305 304 305 307 308 311 313 314 314 314 313 312 312 316 316 317 321 323 326 328 329 332 335 339 341 343 344 346 345
312 312 312 311 310 309 307 306 307 306 310 310 306 309 311 313 313 312 304 303 304 304 312 309 310 309 310 316 314 308 310 311 312 315 318 317 313 310 310 314 311 306 309 310 310 309 308 313 314 311 310 310 309 307 306 306 302 304 306 306 306 307 306 307 309 309 309 309 314 312 305 307 315 316 316 320 322 324 328 329 331 334 337 340 340 342 345 346
311 312 312 311 310 308 307 307 305 309 308 305 306 309 311 313 313 312 305 297 294 303 306 302 311 306 316 308 311 310 311 305 313 315 317 318 321 312 312 309 311 305 308 310 309 310 309 314 313 310 309 309 308 306 308 307 303 302 304 308 307 307 307 307 307 307 303 303 311 316 306 304 314 314 317 319 324 325 328 330 332 335 337 339 340 342 344 345
311 311 311 310 310 307 306 301 308 309 303 303 309 311 311 312 317 311 302 297 294 305 302 305 307 307 312 310 310 311 300 305 315 316 315 319 315 319 309 307 310 311 312 313 309 305 311 311 312 311 310 308 307 304 308 308 304 302 309 309 309 307 306 307 307 307 306 310 312 314 311 305 306 312 319 321 321 323 327 330 332 333 338 337 340 341 344 345
311 311 310 309 308 307 307 308 308 304 303 307 311 311 311 314 315 310 300 288 290 309 303 304 306 313 310 310 312 308 307 311 306 310 316 318 318 315 312 308 307 308 311 309 300 310 311 309 310 309 309 308 306 308 309 310 306 305 309 310 309 309 308 308 307 306 307 306 303 309 312 306 306 312 319 319 316 320 323 326 331 333 336 338 340 340 343 345
311 310 310 309 307 306 310 309 308 304 308 310 310 311 311 314 310 303 296 288 305 304 311 303 311 309 308 309 307 309 309 310 304 311 316 317 318 315 308 311 310 310 311 310 305 309 311 311 312 311 309 306 310 311 311 310 306 309 311 312 311 310 309 308 306 305 306 304 300 305 310 304 305 311 313 317 316 316 319 323 327 333 335 337 338 340 341 344
311 311 309 308 308 310 309 310 309 310 310 310 310 312 312 312 307 294 291 285 306 298 305 304 304 301 307 303 304 307 305 307 308 308 313 311 313 316 315 317 311 309 307 310 309 310 312 316 316 312 310 311 312 313 313 312 312 313 310 309 308 308 307 308 307 306 304 298 301 306 308 307 301 309 311 312 314 317 319 321 324 331 335 337 339 339 340 343
310 309 308 308 307 307 308 304 306 309 311 312 311 310 311 307 297 291 286 295 301 301 305 304 301 305 303 302 302 306 306 307 306 308 307 312 310 312 312 310 313 309 307 307 306 308 310 310 310 312 315 314 313 311 313 314 314 311 308 306 305 305 306 305 305 306 298 296 304 307 307 307 299 305 312 316 320 321 321 319 321 326 333 336 339 338 339 342
308 307 308 308 309 311 304 301 308 311 312 311 309 306 304 293 295 288 290 301 292 300 300 300 303 303 302 304 302 303 303 305 307 306 306 307 307 305 306 303 306 301 300 302 301 307 305 306 310 311 316 312 310 308 309 312 312 309 307 306 300 299 300 296 300 295 296 296 304 307 307 303 302 308 313 316 317 319 323 322 322 323 331 337 338 339 340 341
306 306 305 311 310 309 307 309 311 312 311 309 305 305 298 289 284 292 293 297 294 300 299 304 301 302 302 301 301 303 305 302 307 306 308 308 307 307 309 307 309 306 299 303 302 301 302 308 308 309 310 313 311 303 305 305 307 306 304 303 299 296 295 292 296 299 299 303 306 306 308 302 307 311 315 314 318 320 322 324 324 324 326 335 338 340 339 341
306 306 310 311 309 309 310 312 311 311 308 308 303 299 294 286 286 299 295 299 297 302 302 300 301 302 302 299 302 303 300 304 305 304 307 305 305 304 306 308 309 307 306 306 301 301 297 297 303 306 303 312 309 308 308 307 306 306 308 305 302 301 298 294 297 294 296 300 304 307 302 301 302 306 315 316 318 320 322 322 324 325 325 332 337 338 339 341
305 309 310 310 309 310 309 310 311 311 308 303 298 292 286 286 291 291 294 297 299 300 298 302 299 299 299 301 303 304 303 301 304 304 303 304 302 305 304 305 308 310 308 302 306 304 301 301 307 310 310 311 307 310 312 309 307 308 308 308 303 301 306 299 302 300 300 300 299 303 301 306 306 315 318 320 319 319 320 320 321 322 324 325 331 335 336 338
307 309 310 307 306 308 309 310 311 311 307 299 292 288 286 290 289 297 295 300 299 295 296 300 299 297 298 300 302 301 305 302 303 303 303 304 305 304 308 308 307 309 306 302 307 301 303 301 309 309 311 310 309 311 310 312 300 306 306 301 304 310 307 302 303 303 303 301 299 307 304 306 311 312 315 316 316 317 319 319 320 321 323 326 329 333 336 337
308 309 304 306 306 308 310 311 312 310 306 297 290 285 291 294 298 297 300 297 297 298 296 292 296 295 296 297 300 300 302 303 302 301 299 304 302 304 304 305 307 308 308 308 306 310 303 302 309 307 305 310 313 312 311 312 312 308 301 305 310 312 310 304 297 301 298 294 298 302 301 304 303 301 312 312 313 314 316 318 319 322 324 325 329 333 336 337
307 306 306 305 305 309 311 312 311 309 302 295 289 290 295 290 298 297 300 299 298 298 294 294 295 298 295 296 298 299 302 298 301 301 299 303 298 302 302 302 306 306 307 310 307 308 309 302 305 308 308 310 312 311 308 311 313 309 306 313 304 299 298 304 302 294 295 294 296 300 302 302 305 306 312 311 310 312 316 318 318 318 321 323 327 332 336 338
307 303 299 303 307 309 310 312 309 307 299 292 290 289 292 295 298 298 300 299 299 296 292 295 294 298 298 295 298 299 300 297 301 300 299 300 298 301 300 302 303 306 308 309 306 308 308 302 303 309 308 309 310 308 301 305 310 312 313 309 311 308 303 300 301 303 302 297 297 298 300 299 308 308 310 312 314 315 314 316 317 318 320 323 326 328 333 337
302 299 297 305 307 309 311 309 305 302 295 288 290 291 295 292 296 299 300 299 295 295 293 294 297 295 297 297 298 296 299 299 299 300 300 300 298 300 300 303 301 305 307 309 307 311 306 309 300 305 310 309 302 306 303 305 303 304 305 305 306 306 310 308 306 302 300 298 298 298 297 303 310 313 311 312 315 317 316 316 318 319 320 322 325 326 330 337
304 299 298 306 308 309 309 305 298 293 291 293 293 292 293 291 295 297 299 300 298 300 296 295 296 294 296 296 296 299 298 299 299 299 300 299 299 296 300 301 303 304 308 308 308 309 305 305 301 304 304 303 305 309 309 309 308 306 305 304 306 303 302 298 298 306 303 300 296 298 297 307 309 312 313 313 315 315 317 317 319 320 320 323 323 326 329 334
299 292 295 306 308 308 303 295 294 297 293 291 290 292 291 297 294 295 297 299 298 296 300 297 297 296 296 295 297 297 297 297 298 299 299 298 298 298 299 303 304 306 307 304 305 310 310 309 304 302 303 304 307 311 313 313 312 310 308 305 308 307 306 302 295 301 304 303 304 303 300 305 314 316 316 315 316 315 317 318 318 319 322 322 324 324 330 338
297 294 304 307 308 305 299 294 295 294 292 294 296 295 296 294 294 296 294 296 294 297 297 295 295 295 297 296 296 297 299 296 298 297 300 299 297 298 300 302 305 307 308 307 307 306 312 306 302 303 308 308 310 312 312 312 311 308 308 309 308 305 306 304 304 307 303 303 300 300 299 304 314 317 316 315 318 316 319 317 319 318 319 322 325 327 332 340
297 297 300 307 308 305 296 287 288 290 292 294 294 293 296 294 294 293 293 295 294 294 293 293 296 297 295 299 298 295 299 293 298 297 298 300 297 300 301 302 304 303 303 302 304 308 302 306 304 300 301 302 303 306 307 310 310 307 306 308 309 309 308 308 308 309 303 304 303 300 296 303 314 320 322 319 317 316 316 317 319 320 321 321 323 330 338 342
298 300 301 302 306 303 292 293 291 290 290 291 291 291 292 294 295 295 294 293 296 293 293 292 295 296 296 298 297 298 299 296 296 298 298 298 298 300 301 301 303 303 303 305 306 307 304 305 303 297 295 293 292 293 296 300 303 307 309 308 309 308 307 305 301 304 297 306 307 302 302 311 314 319 316 317 315 317 318 318 318 320 323 323 325 334 342 340
294 289 294 297 300 300 298 299 295 292 290 290 289 291 292 291 294 296 296 294 295 295 294 295 295 296 295 296 295 295 295 299 296 297 298 298 298 299 300 301 302 302 305 306 306 307 305 307 308 306 304 300 303 306 306 308 306 302 304 307 307 308 309 308 307 303 300 305 303 306 307 308 309 311 313 314 317 316 316 319 318 319 322 327 339 338 337 341
298 290 290 288 295 298 294 296 293 293 290 292 287 290 289 291 292 294 298 292 295 293 293 294 291 290 291 293 293 294 295 295 298 297 295 297 298 299 301 301 302 303 305 304 306 306 305 303 304 305 304 302 301 302 304 305 304 305 304 304 307 307 308 306 303 302 310 304 298 306 311 307 309 311 313 315 315 317 317 319 319 321 332 326 326 334 343 334
290 293 295 297 289 287 289 291 294 293 294 293 290 292 290 289 290 288 293 296 296 296 289 292 291 291 290 289 292 290 293 294 296 294 297 297 297 299 299 301 300 302 303 301 305 303 302 300 302 301 300 300 301 301 303 304 304 304 305 305 305 306 306 305 306 307 309 304 302 309 311 308 310 312 315 316 317 318 316 318 320 323 323 324 336 331 325 326
297 296 296 299 290 293 292 293 294 293 292 291 290 291 289 288 288 291 291 292 293 292 293 285 287 290 290 292 290 288 292 290 291 295 295 295 296 297 297 299 300 302 301 300 302 304 301 300 300 299 298 299 300 301 302 303 303 303 304 305 306 306 306 306 307 307 307 308 309 310 312 309 311 313 314 315 317 317 317 319 320 320 320 323 323 327 324 322
293 292 292 296 295 293 294 293 293 292 290 292 288 290 287 289 288 291 293 291 288 290 294 288 289 290 291 291 292 288 291 292 290 289 295 294 295 298 296 298 298 301 301 298 299 303 298 298 298 298 298 299 300 301 301 302 301 301 303 304 304 305 305 306 306 307 309 308 309 308 309 309 314 318 318 319 320 320 321 319 318 321 319 319 320 320 322 323
300 302 299 292 289 292 293 293 291 290 289 292 290 290 290 290 289 292 292 295 291 287 289 287 290 290 291 292 291 291 294 293 294 294 296 296 292 298 295 297 299 296 298 298 299 299 299 297 299 298 296 297 299 299 300 300 300 300 301 302 303 303 302 304 304 307 306 306 307 307 306 306 313 316 316 317 317 317 316 317 318 318 319 320 320 320 325 326
303 305 303 297 288 294 290 292 292 290 287 290 290 291 289 290 292 293 289 293 293 293 292 291 291 291 291 291 289 292 295 295 295 297 298 299 300 299 299 299 298 296 296 297 300 297 298 296 296 296 294 296 299 298 298 298 298 297 299 302 304 306 306 307 308 309 308 308 306 304 305 311 314 316 314 315 316 316 316 316 318 320 322 321 322 322 324 324
Wind_Speed
22 22 22 22 22 21 22 22 22 21 21 21 21 21 21 21 21 21 21 21 21 20 19 20 18 18 17 17 16 15 16 10 9 10 11 22 5 13 10 8 17 14 16 16 17 18 18 17 16 16 11 10 8 9 8 9 4 5 6 5 5 2 3 4 6 5 3 4 3 5 6 5 6 8 7 7 7 6 9 6 7 5 3 4 13 18 20 21
22 21 22 22 22 23 23 23 22 22 21 21 21 21 22 22 23 23 23 21 20 20 19 18 18 17 17 15 15 15 14 11 13 15 24 6 12 14 12 15 18 19 20 16 21 20 20 17 17 17 12 9 7 8 10 7 8 7 5 5 4 2 6 2 5 5 4 5 4 2 5 6 4 8 8 8 9 10 10 8 10 9 9 12 16 20 22 22
23 24 23 23 23 24 23 23 23 23 22 21 21 22 22 22 22 23 23 23 21 20 19 17 17 16 16 15 13 14 13 12 13 18 21 19 19 16 14 18 23 23 21 19 19 20 18 18 16 16 11 9 9 9 11 7 9 9 6 5 5 1 3 1 2 4 4 4 4 1 5 5 3 6 8 7 8 10 10 10 11 11 13 15 18 20 22 21
24 24 24 24 24 24 24 24 24 22 22 22 23 23 23 23 23 23 24 23 22 20 18 17 15 14 14 14 11 12 10 12 13 8 9 5 14 15 14 20 24 26 19 17 18 16 15 16 16 17 12 10 9 9 10 8 8 7 8 7 2 1 5 3 2 2 4 7 6 5 2 5 5 6 6 6 4 8 7 10 13 14 16 18 19 21 21 21
25 25 24 25 25 25 25 25 23 23 22 23 24 25 25 24 24 24 23 22 22 20 18 17 15 14 13 11 11 8 8 9 2 10 10 11 13 18 18 23 24 24 20 16 16 15 15 17 17 15 11 10 10 10 11 11 10 4 10 7 3 2 5 6 2 3 3 6 5 3 3 3 4 7 8 7 4 2 4 8 11 12 18 20 22 22 21 22
25 25 25 25 26 26 26 24 23 23 23 23 25 25 25 25 26 25 24 22 21 20 19 18 14 12 12 9 10 7 4 6 5 5 7 6 13 17 20 23 23 22 18 17 16 15 17 16 17 13 11 11 12 12 12 12 12 9 10 10 8 7 8 1 4 2 5 7 6 5 3 2 6 6 8 9 10 1 4 3 10 12 17 18 20 20 21 23
25 25 26 26 26 25 24 25 24 24 24 25 26 26 26 26 27 24 24 22 20 20 19 15 12 10 9 10 7 6 10 15 8 8 4 5 13 17 19 20 22 20 17 17 17 15 17 18 18 15 13 13 13 13 11 14 13 12 8 6 10 9 11 7 8 8 9 8 8 6 6 7 6 9 7 10 10 4 3 3 9 13 16 18 20 21 21 22
25 25 26 26 26 26 25 26 26 26 26 26 27 28 28 27 27 25 25 24 22 20 17 14 11 7 7 7 5 7 11 16 14 5 8 8 13 18 20 21 23 19 18 20 19 19 19 19 19 14 12 13 9 14 9 11 14 13 12 11 8 7 7 7 9 10 9 9 8 8 9 8 7 7 4 8 10 8 4 8 12 16 17 18 19 20 19 19
26 26 27 27 27 26 26 27 27 27 27 27 27 27 29 28 27 25 25 24 22 19 15 12 10 8 9 7 7 10 15 16 10 9 8 7 12 20 23 17 22 20 19 19 21 19 19 17 18 16 11 15 9 14 11 9 10 15 14 9 7 8 8 8 9 10 10 7 6 9 11 8 8 7 10 7 10 9 7 11 14 17 18 17 18 19 19 19
26 26 26 27 27 27 28 27 27 27 27 28 28 29 30 27 25 25 24 23 21 17 11 10 10 10 8 7 6 11 2 6 2 3 3 7 14 22 26 21 24 20 17 19 18 19 20 15 19 16 8 11 8 11 11 13 2 5 13 13 13 12 11 9 12 11 9 10 8 11 10 8 7 8 6 9 10 11 11 13 15 17 17 17 16 17 18 19
27 27 27 27 28 28 28 28 28 29 29 29 30 28 27 27 26 25 23 21 19 15 10 10 12 13 9 8 10 12 5 6 2 2 5 10 17 20 21 19 24 21 21 19 19 21 20 16 18 9 7 8 9 11 13 11 12 5 4 7 11 11 12 12 12 13 9 9 11 12 11 8 8 10 8 5 12 14 13 14 15 15 16 15 17 17 17 17
26 28 27 28 28 27 28 29 29 29 31 31 28 28 27 26 25 24 21 20 17 11 9 11 16 9 7 7 13 12 7 3 4 3 5 12 15 18 16 18 21 20 20 19 19 18 17 14 16 13 7 7 10 7 13 11 9 10 9 11 12 13 13 13 14 13 10 10 8 7 10 12 11 14 13 7 13 15 14 15 16 15 15 15 16 16 15 16
28 26 29 28 27 28 28 29 30 31 30 29 28 27 25 24 24 20 18 11 5 4 9 14 14 8 8 9 16 18 8 1 4 2 5 8 9 8 8 14 18 17 17 17 17 16 15 12 16 16 11 6 7 7 5 10 11 9 10 10 12 12 13 14 14 14 12 9 7 7 8 8 14 13 11 11 14 15 15 15 16 14 15 15 16 15 15 16
28 29 27 28 28 28 29 29 30 30 30 30 28 25 23 22 21 17 8 6 3 3 11 17 10 7 8 11 2 5 10 6 3 2 7 6 9 7 9 13 14 12 12 13 13 13 14 11 15 14 9 10 7 5 7 6 6 10 10 10 10 9 10 9 8 10 12 8 9 10 8 5 7 12 10 13 16 17 16 16 16 15 15 15 15 15 15 18
28 28 28 28 29 29 29 30 30 30 30 30 27 24 22 19 15 11 4 2 5 10 14 14 7 7 7 10 10 10 8 5 12 11 8 11 10 9 11 14 12 11 9 5 7 10 10 11 14 13 11 11 6 5 10 8 8 8 8 11 10 11 9 9 8 9 11 11 10 11 9 9 2 9 10 13 14 16 15 16 17 16 16 16 15 16 16 17
26 26 27 27 28 28 29 29 29 30 31 29 26 24 20 14 11 3 7 6 11 15 11 8 6 8 8 11 3 10 8 11 15 16 11 11 10 10 13 15 12 9 10 7 4 5 7 11 14 11 9 9 11 9 8 9 10 9 11 10 13 12 11 10 12 8 11 6 9 12 8 6 7 5 10 11 13 14 13 14 16 17 18 17 16 15 15 15
25 26 26 27 28 28 29 29 30 30 29 29 26 23 14 8 8 4 6 11 9 7 6 2 6 5 6 4 4 7 9 12 5 12 15 14 11 7 13 14 12 11 10 6 7 8 10 11 9 10 12 10 11 10 10 12 11 11 11 11 10 10 12 11 10 7 7 10 10 13 12 11 1 5 8 10 11 13 12 14 15 16 15 16 15 16 16 16
28 26 28 28 29 29 28 28 30 29 29 30 23 20 10 5 3 5 7 8 2 4 4 2 6 5 14 14 5 2 4 9 10 9 16 14 14 10 12 13 11 13 12 9 10 12 11 11 11 11 10 13 12 14 15 15 13 11 12 11 12 10 9 10 10 9 7 8 10 9 12 11 9 5 8 9 10 12 12 12 14 15 15 16 16 16 17 17
29 28 28 28 28 29 28 29 30 29 27 25 23 14 1 3 5 6 5 4 5 5 6 8 7 9 5 3 10 3 5 4 4 10 12 16 16 12 12 10 13 16 13 12 11 15 11 10 10 11 15 16 16 16 15 11 9 15 12 10 11 11 13 13 10 5 5 6 10 13 10 10 11 10 9 8 10 11 11 11 11 14 14 15 15 16 16 17
27 26 27 27 26 28 28 28 28 29 26 18 13 4 6 3 5 5 5 7 11 13 15 4 13 15 7 5 3 2 2 6 7 11 11 13 15 17 15 12 13 15 14 13 14 16 11 14 15 18 16 16 18 18 15 15 5 7 9 11 12 12 11 10 9 4 4 8 11 11 12 11 8 6 5 8 10 11 11 11 12 14 15 16 16 17 18 18
26 26 27 26 27 27 27 26 28 28 25 14 13 6 7 9 10 7 16 18 19 18 18 20 19 17 16 2 2 1 6 11 9 9 12 13 16 18 15 15 16 15 16 16 13 12 13 16 18 18 17 15 16 16 17 16 11 9 9 11 11 13 12 11 10 6 5 8 10 10 10 10 11 10 11 11 12 13 13 14 15 16 16 15 18 18 18 16
26 27 26 29 27 27 26 25 27 25 22 10 10 8 7 7 4 8 6 12 9 13 17 22 17 19 18 21 13 1 4 3 10 10 11 17 18 19 17 18 19 17 16 16 13 14 16 21 17 18 17 14 14 16 17 17 14 12 11 9 11 13 12 11 11 6 6 6 10 12 13 13 12 12 10 11 12 11 12 14 15 16 17 15 16 17 16 15
27 26 27 27 29 27 29 25 25 22 9 8 9 9 7 7 7 5 8 12 20 13 18 20 18 21 19 15 15 12 13 13 11 15 14 16 18 20 18 18 18 17 17 20 18 16 14 18 20 17 16 16 14 12 15 15 14 12 12 12 13 11 11 10 13 12 11 8 9 9 12 11 11 10 11 10 12 12 13 14 15 15 17 17 17 16 16 18
27 27 27 28 30 29 27 26 24 13 5 6 7 11 6 7 7 8 8 8 13 16 16 16 18 16 18 15 9 17 19 13 12 15 16 17 18 19 16 23 21 19 19 25 24 18 18 6 17 18 18 17 16 16 15 13 14 16 16 14 14 13 11 11 2 5 5 9 11 12 12 14 13 14 13 14 14 13 13 13 14 14 15 15 15 16 17 18
27 27 27 27 29 30 31 23 7 11 9 5 4 12 9 9 7 6 8 8 10 12 5 10 9 10 10 7 7 15 16 13 16 13 14 19 18 17 17 16 15 19 21 23 22 19 18 12 6 19 19 18 18 16 17 14 14 14 19 18 15 13 14 11 12 8 7 9 12 12 10 14 14 16 17 12 11 13 11 12 14 14 14 14 15 15 15 16
27 27 27 26 27 28 33 11 9 12 12 2 11 13 11 9 7 6 6 6 10 2 6 6 8 3 9 10 10 11 8 15 19 14 13 17 15 16 11 15 15 21 24 21 19 14 14 14 12 17 20 19 20 17 16 17 13 14 13 17 18 16 12 12 10 9 12 11 7 11 13 12 11 15 13 10 9 11 10 12 12 13 14 14 14 14 15 17
26 27 27 27 25 25 12 7 10 12 7 6 13 13 11 8 5 6 5 6 9 6 6 6 6 5 6 8 13 12 9 11 13 16 17 18 19 14 16 16 15 12 15 11 10 15 15 17 15 16 18 18 16 17 16 17 14 13 8 10 16 19 17 14 12 11 10 9 10 7 9 11 12 12 9 10 13 11 12 12 12 13 15 15 15 15 16 17
27 25 25 27 25 20 7 9 10 9 8 12 14 12 11 7 5 4 5 6 4 8 6 6 3 4 5 9 14 15 6 9 11 17 20 18 18 16 17 20 20 22 18 16 20 13 18 19 19 20 18 15 16 16 15 18 15 10 8 6 9 14 17 15 12 11 11 11 13 13 14 12 14 13 11 10 13 13 13 13 14 14 15 16 16 16 18 18
24 24 23 23 26 25 8 6 8 9 11 13 13 12 8 7 5 5 6 7 5 4 3 7 1 6 4 9 13 18 4 3 6 10 20 18 21 13 16 19 17 18 20 21 16 11 13 19 20 19 16 14 14 14 17 18 15 14 3 5 7 9 12 14 11 11 11 12 16 14 14 13 14 12 13 14 15 14 14 14 15 16 16 16 16 17 18 17
24 23 23 21 19 7 3 8 7 8 12 13 14 13 12 6 5 6 6 9 1 3 1 5 6 3 7 9 9 14 14 6 2 5 15 16 22 19 12 12 15 16 19 18 19 16 8 11 15 14 17 16 13 12 15 17 17 11 12 8 8 10 10 10 11 10 10 16 18 16 17 15 15 13 14 13 12 13 14 13 13 14 15 17 17 17 16 17
24 23 22 18 9 7 9 7 8 14 13 13 15 15 8 5 6 7 11 2 5 7 4 5 4 6 3 6 6 13 14 12 5 10 13 13 18 20 12 11 14 12 15 16 18 22 13 10 14 14 17 13 13 12 12 14 15 15 10 10 8 8 8 9 9 10 13 16 12 14 16 17 17 14 13 14 12 14 14 15 13 13 16 16 16 15 17 18
24 25 24 16 7 6 7 11 15 13 12 16 16 10 6 8 9 11 8 8 9 7 6 6 3 5 6 5 9 6 12 13 9 11 14 14 17 19 20 17 16 16 18 19 17 19 22 14 12 15 16 20 16 14 12 13 15 15 12 11 12 8 8 10 10 14 16 12 7 12 16 15 23 15 6 11 17 17 15 13 14 13 14 16 17 17 16 17
26 26 27 11 4 3 7 10 12 11 13 16 12 8 8 9 11 10 15 10 2 9 6 11 9 13 11 10 8 10 8 13 14 12 14 15 16 19 21 19 18 17 13 15 14 16 16 16 15 16 15 18 18 16 13 14 15 16 15 13 13 12 12 11 12 9 9 12 13 7 11 16 14 11 19 20 12 11 13 13 13 13 12 14 15 16 15 16
27 27 13 6 5 5 7 11 10 13 14 12 9 7 9 11 12 7 7 7 10 12 11 11 18 14 12 9 2 4 9 11 11 13 15 13 17 16 19 23 22 21 15 10 16 16 13 17 21 21 15 19 21 18 15 11 15 15 14 14 12 10 9 11 9 12 12 8 11 13 5 9 9 5 10 17 18 16 13 13 12 13 13 13 15 16 17 18
30 22 9 5 4 5 10 11 11 11 11 9 8 8 10 11 10 10 5 11 10 13 13 17 15 13 8 11 4 5 6 7 11 13 14 14 17 15 18 19 24 18 16 13 13 11 23 14 10 24 9 20 21 20 16 14 12 14 14 12 13 16 8 9 3 9 9 10 10 14 12 3 8 4 3 2 12 17 17 17 16 16 15 15 14 15 15 16
21 9 8 2 8 9 11 9 11 10 8 8 7 7 10 8 7 8 6 12 11 14 20 19 12 11 8 6 7 3 5 6 11 10 11 14 13 17 16 15 19 23 15 17 8 14 12 15 11 21 19 17 21 19 19 15 12 14 14 18 16 11 11 10 6 6 7 5 11 7 11 12 8 8 8 7 9 11 12 13 13 14 14 13 13 14 16 16
11 11 5 7 8 13 11 10 8 8 7 7 8 9 5 6 6 9 9 13 15 15 13 10 1 5 5 6 4 4 1 6 6 10 11 13 9 3 2 4 7 2 4 5 11 12 10 10 12 17 24 18 19 21 20 19 12 10 16 15 12 11 11 9 9 7 10 11 10 11 14 10 10 10 13 18 14 14 15 15 14 13 13 13 13 13 14 16
12 10 10 5 15 13 12 10 10 6 6 7 8 9 8 10 8 12 12 14 11 12 11 9 8 8 5 5 2 5 4 7 7 10 9 15 4 4 3 2 2 5 6 3 6 8 11 9 11 16 19 17 17 18 18 20 21 13 11 12 14 13 14 11 7 13 11 13 10 12 13 13 11 9 3 12 18 16 15 14 15 15 15 14 15 16 15 16
10 9 3 12 15 15 13 12 8 7 6 7 6 8 1 7 9 10 12 13 11 12 11 10 10 6 7 7 8 8 5 6 4 6 10 4 6 6 5 5 3 7 5 4 8 2 6 10 8 13 17 18 16 16 17 17 20 19 10 13 14 9 11 12 12 7 8 10 9 11 13 11 9 10 10 7 10 14 15 14 15 15 16 15 14 14 15 15
9 6 4 14 16 15 14 12 8 6 5 5 6 6 8 11 10 11 11 12 10 9 9 12 11 12 10 11 9 9 7 9 7 3 7 5 1 7 7 6 7 7 6 5 7 8 7 10 7 12 17 18 16 15 18 17 19 18 16 13 13 11 6 9 10 14 10 9 10 7 8 7 5 8 13 14 11 10 11 13 13 14 14 16 15 14 14 15
8 7 3 14 16 15 15 9 3 5 6 4 5 8 9 9 11 10 12 12 10 9 11 12 12 11 10 11 10 8 7 7 6 4 2 4 5 5 10 9 8 7 5 3 9 7 8 10 12 9 14 16 14 14 17 19 19 18 16 15 14 15 13 13 12 11 13 10 7 8 9 3 5 2 4 10 12 12 12 12 11 13 14 12 12 14 14 14
9 8 9 14 15 17 12 6 5 5 5 7 8 9 9 10 10 11 12 11 11 9 9 11 14 14 13 12 12 10 8 9 6 7 2 3 8 8 7 10 9 8 7 8 13 2 4 4 12 11 11 11 13 15 17 18 18 18 17 16 16 14 13 10 9 11 10 12 9 9 8 5 6 6 7 5 4 5 7 9 10 10 11 11 11 11 10 9
7 7 10 11 13 15 10 4 5 6 7 8 10 8 9 8 10 10 11 11 11 8 10 9 10 11 12 11 9 11 9 8 4 7 4 4 8 9 9 11 12 6 7 3 3 2 5 6 10 12 8 7 10 10 17 18 20 20 19 18 18 18 17 12 9 6 9 10 11 9 10 4 6 2 4 8 7 6 5 6 7 7 7 8 8 6 5 6
8 9 7 5 9 12 6 8 8 8 7 10 11 11 7 8 10 12 10 11 7 8 8 11 10 7 12 10 9 11 6 8 6 5 5 1 4 7 9 10 13 6 9 6 4 5 8 12 11 12 8 6 8 8 12 17 17 15 15 17 20 18 19 16 12 10 11 12 12 9 11 6 7 4 2 3 5 5 2 4 3 4 4 5 6 3 3 5
8 5 3 8 7 6 8 6 6 8 8 11 12 10 11 6 6 10 11 8 5 6 8 7 12 15 11 10 12 11 9 8 6 4 6 3 4 5 7 10 9 8 9 9 9 5 5 8 15 14 17 16 17 16 17 19 18 13 14 18 21 22 22 17 15 12 11 9 13 11 9 2 8 3 6 5 4 2 3 3 2 3 3 3 3 2 2 3
7 9 8 7 8 3 5 4 5 8 8 10 11 8 10 10 8 9 11 5 6 10 4 7 12 15 7 13 10 13 10 7 10 2 5 4 2 3 7 6 8 9 13 11 11 5 4 3 6 6 8 11 3 5 8 6 15 16 19 18 19 22 20 18 11 13 13 10 13 12 9 5 9 9 9 8 5 2 2 5 4 2 3 1 2 1 2 4
6 7 10 10 9 3 9 5 8 8 8 10 7 7 10 11 10 8 11 7 9 10 8 4 10 12 12 13 9 8 7 7 4 3 1 4 2 4 3 6 4 10 14 8 11 5 4 6 4 3 1 4 3 4 7 7 6 17 18 18 15 16 20 21 17 14 8 9 13 10 13 14 9 10 7 4 4 4 5 5 5 2 4 4 4 3 5 7
6 6 7 4 6 8 11 8 11 11 11 11 7 7 9 10 11 9 9 3 8 8 10 1 9 10 11 11 13 7 3 7 4 6 1 2 7 4 2 4 4 8 10 6 8 6 3 7 3 5 1 3 3 3 4 1 1 1 5 11 16 15 17 20 18 16 13 12 10 7 13 15 15 15 11 8 6 6 6 7 7 7 8 4 1 5 10 7
4 6 5 7 7 8 10 12 13 11 12 8 6 5 8 9 10 9 7 10 8 3 9 7 11 12 11 10 7 8 8 5 4 6 3 7 8 6 4 5 6 8 7 6 6 6 6 1 3 2 4 2 1 1 1 2 1 4 6 7 7 10 13 13 14 15 17 13 10 11 9 13 12 15 16 15 13 12 12 12 12 14 13 11 10 8 10 9
6 6 5 8 8 10 10 10 10 10 9 5 5 4 5 8 9 10 8 8 9 6 8 9 13 13 12 10 8 6 6 8 9 8 10 11 7 2 6 3 6 6 8 6 6 5 6 4 3 6 5 5 4 3 3 6 4 6 8 9 10 10 10 11 11 13 13 13 12 12 12 11 6 3 6 7 6 7 8 10 11 13 17 19 17 15 13 10
6 4 4 6 9 7 9 9 8 9 8 3 4 6 8 7 8 9 11 7 4 3 6 9 12 13 11 10 8 7 8 10 11 11 11 9 7 6 7 2 8 9 7 6 5 6 6 2 1 3 5 6 6 6 4 4 8 10 11 11 11 12 13 13 12 11 13 13 13 14 15 14 10 11 10 11 13 13 13 12 12 11 14 16 17 15 13 12
5 3 3 4 6 8 9 9 9 8 6 5 7 9 7 9 9 9 9 3 3 6 3 8 8 9 9 7 7 7 10 12 12 13 11 11 11 10 10 11 9 8 7 6 6 5 3 5 3 2 6 7 7 2 3 4 6 11 15 15 14 15 13 12 13 13 15 13 13 15 15 10 10 10 13 12 12 15 16 14 13 14 14 15 16 17 16 15
Wind_Direction
357 355 354 352 349 347 345 343 341 340 338 336 332 328 325 323 320 319 320 319 320 319 319 319 318 318 319 320 321 322 316 301 288 257 230 245 264 147 159 132 167 189 173 162 147 159 165 173 179 172 184 180 204 209 173 211 188 205 222 242 244 288 264 91 54 53 67 34 93 170 174 194 165 165 139 168 163 158 149 170 135 117 123 76 116 135 142 150
356 354 352 350 348 345 344 342 340 338 337 333 329 326 321 319 318 319 319 318 316 317 318 316 316 314 315 317 319 320 313 286 273 259 241 233 162 161 156 156 163 174 178 164 160 167 165 175 177 172 181 195 171 201 162 194 193 207 220 246 273 164 67 5 59 40 0 44 359 219 184 222 179 183 157 194 171 158 166 160 156 142 122 114 132 137 150 156
355 353 351 349 347 345 342 340 338 336 334 329 326 321 318 316 315 315 315 314 314 314 314 316 313 311 312 315 314 314 299 294 266 257 265 228 200 169 153 163 166 174 181 168 171 169 173 171 169 177 184 196 174 187 183 178 197 214 255 242 244 25 96 217 335 12 18 354 16 360 191 214 153 190 152 223 169 172 181 162 169 160 146 142 142 149 151 161
354 351 350 348 345 343 341 338 336 335 329 326 321 318 315 314 313 316 316 313 310 310 310 309 309 309 308 310 319 307 289 278 271 254 78 47 163 160 166 165 169 178 178 174 172 177 173 168 170 184 179 215 180 203 184 182 205 182 230 242 273 14 222 172 199 59 37 4 1 12 124 212 183 200 185 216 196 200 205 181 179 170 158 151 152 155 157 164
353 351 348 346 344 342 339 337 334 329 324 321 317 316 314 312 316 317 314 309 307 306 304 306 303 303 303 302 306 292 290 291 296 91 85 103 157 164 170 173 172 179 183 173 173 181 176 172 174 193 196 201 184 197 208 191 212 214 223 238 250 179 214 118 310 335 353 344 335 17 253 242 158 205 210 211 207 176 194 193 185 169 160 156 159 161 163 167
352 350 347 345 343 341 338 333 329 325 321 319 316 315 313 314 316 316 312 307 302 302 302 301 296 293 293 302 291 266 269 245 68 98 98 104 146 171 171 174 179 184 183 176 179 177 178 177 179 194 200 215 189 202 193 214 193 238 220 238 239 253 272 276 284 264 297 314 313 315 358 275 193 212 211 213 214 78 26 109 172 162 162 158 156 162 168 170
351 349 347 344 342 339 334 330 327 323 321 318 318 314 314 316 318 313 308 304 299 298 298 294 286 281 283 288 262 251 235 273 277 107 208 154 157 166 170 171 180 191 187 178 183 176 183 180 189 191 197 210 203 209 196 202 201 234 250 210 222 231 244 252 260 264 274 287 289 296 304 252 211 237 200 217 212 235 171 144 152 147 155 156 160 168 173 173
350 348 346 344 341 337 332 329 326 324 321 320 317 317 316 317 317 313 309 302 302 299 292 282 276 263 268 249 219 223 231 245 258 243 118 130 155 163 163 173 182 190 191 188 178 182 179 187 191 189 209 206 193 206 183 202 206 224 239 247 254 246 250 252 254 258 263 267 268 270 266 249 231 251 221 211 216 193 172 154 143 148 157 163 164 170 174 174
350 348 346 343 339 336 332 328 325 323 322 319 318 316 319 319 315 309 305 303 302 298 284 268 245 235 234 255 241 270 248 252 275 277 257 188 159 154 163 170 189 190 193 193 183 180 181 191 195 193 204 209 198 208 190 203 212 222 238 244 245 245 249 251 253 252 256 260 250 257 250 246 238 232 246 225 204 191 169 148 149 154 160 168 169 171 174 176
350 347 345 342 340 337 332 328 326 323 322 320 318 321 320 316 311 308 306 301 298 292 278 245 219 202 196 214 219 251 286 63 83 242 220 187 157 158 172 171 181 191 193 194 189 184 189 184 199 193 240 224 200 213 198 210 279 177 225 241 255 261 262 252 255 255 252 250 240 244 251 243 224 220 225 210 201 168 165 158 155 161 167 169 172 174 176 178
349 347 344 342 340 336 331 327 325 323 321 322 322 319 317 316 311 308 306 301 292 285 257 216 196 192 204 232 228 238 68 275 356 60 199 168 163 165 178 176 179 186 193 186 193 191 193 193 195 182 233 227 187 212 213 215 240 220 232 247 251 255 252 252 251 252 250 247 233 236 249 252 232 210 235 165 175 166 176 167 163 169 170 172 174 175 176 182
348 346 344 341 338 334 329 326 323 323 327 324 318 320 318 313 311 309 305 303 291 272 217 194 183 199 218 224 233 226 53 40 26 74 162 171 173 178 181 178 181 187 187 185 195 193 198 196 191 184 196 167 204 218 221 217 217 242 246 257 255 254 253 239 242 242 230 241 222 218 250 237 215 216 209 204 162 174 183 175 172 173 173 173 174 174 177 182
347 344 342 340 336 331 328 325 324 325 323 319 318 320 315 313 310 308 310 315 337 226 184 178 177 216 208 234 246 241 250 340 72 58 139 173 172 178 187 184 185 190 193 186 189 192 198 196 193 194 219 200 191 202 56 198 220 236 238 254 266 257 252 239 232 232 223 225 218 190 240 218 207 207 199 184 175 182 186 182 179 176 174 174 176 177 177 180
346 343 341 338 333 330 328 327 325 323 323 320 317 316 315 313 306 310 332 348 340 181 164 165 184 196 224 242 83 64 242 222 183 197 167 149 171 164 184 176 186 194 199 202 192 188 194 195 198 212 219 222 211 133 223 172 202 220 226 229 245 246 235 197 212 196 217 187 202 202 244 242 158 180 185 177 183 186 189 185 183 179 176 174 178 178 180 183
345 343 340 336 332 329 327 328 326 323 321 320 316 316 314 309 303 310 281 269 104 135 145 160 197 179 219 262 255 240 151 241 235 213 180 173 177 159 175 173 177 188 181 216 210 192 197 196 200 213 207 216 304 195 218 215 198 220 211 215 218 233 227 152 171 171 224 149 204 196 239 244 174 155 170 175 189 194 195 189 185 183 180 177 178 181 182 184
344 342 337 333 332 329 327 328 326 323 321 318 317 315 313 302 296 282 332 78 126 137 148 172 198 248 296 269 154 101 178 204 220 211 197 190 179 171 172 177 168 165 174 175 196 186 197 203 208 207 210 193 218 220 216 214 213 207 229 227 214 211 225 202 174 201 220 221 182 213 235 212 174 161 160 179 192 197 202 196 189 185 183 179 180 182 183 181
344 340 336 332 331 330 328 330 327 323 322 317 318 312 314 284 258 103 110 130 139 170 220 294 175 221 251 93 122 222 207 211 213 188 199 205 199 164 163 170 184 177 184 168 198 186 187 209 199 215 228 222 204 217 222 221 213 209 207 233 240 210 204 225 125 188 168 215 206 206 236 245 217 158 171 182 193 195 207 202 195 190 186 183 182 184 182 184
344 340 336 332 331 331 330 329 326 324 322 318 314 304 298 277 273 178 205 207 173 223 223 259 213 227 244 245 243 201 184 192 184 190 195 195 201 188 169 172 176 178 177 176 183 194 180 205 192 217 202 218 211 207 215 212 209 209 198 215 223 230 240 238 201 145 209 169 243 209 228 236 244 192 183 187 193 200 208 207 199 197 192 186 186 187 185 185
344 339 334 332 330 331 332 331 325 325 322 316 297 277 299 237 236 246 271 190 214 178 204 179 188 189 11 154 209 125 175 93 177 179 182 193 192 195 179 179 170 171 185 191 172 199 170 209 195 218 214 203 210 211 215 220 223 225 214 217 226 220 211 224 230 152 222 230 227 226 233 229 222 224 190 189 195 204 210 208 201 200 199 194 193 190 189 189
341 337 332 331 330 330 333 331 325 324 324 322 323 278 210 307 227 180 190 239 246 251 284 306 211 268 304 206 165 231 41 194 204 199 179 182 175 185 192 186 172 186 184 198 164 202 168 206 201 209 211 207 208 214 219 223 226 262 237 225 227 229 234 225 220 153 212 257 245 243 241 248 249 253 188 194 193 204 210 207 205 203 201 199 199 196 193 190
339 336 333 331 332 331 330 332 325 322 319 313 306 2 30 358 347 332 330 283 261 257 256 260 244 240 246 304 89 20 219 192 222 181 186 167 178 173 184 181 180 195 198 196 178 182 193 216 217 211 212 211 210 210 219 229 225 234 227 223 229 229 235 226 229 168 211 243 247 247 258 249 243 237 235 208 210 209 205 208 209 207 204 202 201 201 198 190
341 336 333 332 332 332 330 332 323 318 309 290 25 49 55 28 349 313 308 306 276 251 243 242 246 246 244 253 253 81 309 269 203 200 163 178 178 187 172 192 184 198 187 196 183 187 204 219 215 209 209 214 217 212 212 221 221 224 238 232 236 231 236 240 237 173 212 241 254 256 259 257 253 250 241 232 212 211 214 216 213 207 207 204 203 203 195 186
341 335 334 331 331 331 330 328 320 309 314 13 30 29 27 356 326 312 283 277 281 245 236 237 233 236 242 237 237 235 249 229 209 190 175 193 177 205 169 192 190 197 187 197 195 192 210 226 216 209 205 210 210 210 204 212 224 228 225 232 233 232 227 216 219 213 227 241 259 256 268 267 263 255 246 234 219 209 215 219 217 211 208 206 204 199 194 191
340 335 332 334 330 332 323 328 306 294 355 348 30 29 5 334 338 315 277 274 296 295 226 222 222 230 226 209 203 202 213 224 223 206 176 194 191 194 188 196 192 197 197 199 204 202 209 204 204 208 207 202 200 194 201 209 220 225 234 232 235 233 229 247 164 168 228 227 245 262 266 266 251 247 236 224 218 212 212 214 218 218 214 213 208 202 196 193
338 334 332 332 332 332 323 320 321 358 319 258 12 7 353 337 327 338 295 271 231 250 188 226 205 234 229 196 151 190 214 235 222 216 179 194 188 189 205 192 202 205 205 199 207 220 223 209 170 201 205 199 204 208 211 215 226 225 225 231 236 236 242 228 249 242 231 238 216 229 254 250 245 242 244 233 192 207 201 206 211 211 214 209 211 205 199 199
338 333 331 331 332 335 314 298 21 333 313 358 359 344 338 333 331 309 278 274 273 205 147 188 171 181 155 181 175 205 187 227 211 209 191 199 205 204 179 203 203 205 204 198 207 222 227 204 192 201 199 200 210 221 209 210 226 228 221 217 232 240 239 242 225 225 240 245 225 214 243 253 243 241 230 216 191 202 185 204 206 205 210 208 207 204 199 196
337 332 329 330 331 337 331 15 326 315 340 347 339 330 331 326 328 270 261 233 257 155 137 71 219 110 242 149 180 168 198 226 181 195 200 185 202 202 210 198 194 227 201 197 208 220 214 210 189 197 197 205 212 218 208 205 220 230 222 216 217 223 231 229 233 240 256 259 259 200 227 260 256 242 221 189 210 199 189 194 203 203 205 207 206 205 201 198
333 329 327 327 327 329 292 300 318 330 351 324 319 323 319 327 296 256 251 290 256 127 122 166 21 141 255 166 182 194 68 89 155 193 195 178 202 198 225 205 202 200 196 193 215 203 198 203 191 193 200 203 214 212 200 201 216 224 207 225 225 219 224 230 238 244 246 250 242 227 221 246 249 247 241 228 218 208 205 202 199 206 203 205 206 205 202 201
328 324 324 323 324 305 273 281 309 316 335 323 313 315 317 299 275 260 277 270 102 94 352 122 311 186 110 165 192 221 196 211 293 141 183 182 200 205 208 223 213 209 209 208 220 196 199 213 198 201 197 211 212 205 207 199 214 220 210 199 225 219 223 228 235 238 241 240 244 233 223 242 247 240 234 214 228 224 220 216 213 206 203 202 207 207 204 199
323 322 319 323 317 280 261 285 248 312 326 321 312 308 299 270 228 229 207 243 279 167 11 114 203 99 146 175 201 216 229 225 156 153 188 190 185 212 238 228 225 213 216 213 228 231 204 206 209 204 207 217 205 207 206 204 214 214 200 205 200 214 220 221 231 240 241 243 240 235 232 237 259 236 231 221 211 220 226 223 218 209 202 202 205 206 202 198
321 321 316 322 303 329 302 295 348 336 321 316 310 302 276 228 236 241 228 230 358 69 231 85 100 234 177 239 222 187 221 214 173 165 169 187 184 200 202 206 226 229 219 212 218 229 204 191 206 210 216 218 215 209 206 213 203 216 202 210 226 219 220 222 220 217 237 242 234 226 231 228 249 241 231 237 230 212 223 229 217 205 199 199 202 205 204 200
321 320 318 318 287 295 309 320 322 321 321 313 307 300 253 238 213 225 217 82 249 35 360 7 335 347 297 309 274 190 194 211 209 183 181 186 181 188 196 200 180 197 208 205 213 208 221 205 206 206 206 212 198 218 197 195 198 208 207 206 213 196 188 207 197 214 222 238 222 219 219 231 234 244 254 224 225 223 220 230 229 216 202 198 198 201 201 200
323 320 315 291 263 257 298 311 309 316 316 311 304 278 242 239 237 220 246 298 75 359 1 325 327 315 302 289 243 217 210 216 181 200 191 191 200 198 200 210 192 210 205 198 212 199 221 215 199 205 201 200 203 205 188 193 196 200 204 200 203 199 194 209 209 228 241 225 230 233 218 243 256 251 225 237 234 233 221 221 225 228 215 197 198 199 199 199
320 318 314 342 304 284 297 303 312 315 319 311 289 268 233 242 234 46 290 31 338 350 317 333 321 306 274 252 143 173 202 225 193 188 194 189 204 197 200 210 211 204 233 197 208 198 198 201 209 192 204 184 204 210 198 199 189 201 204 208 210 218 204 207 210 214 224 236 197 195 202 234 224 224 223 217 221 218 218 225 224 223 222 205 202 196 197 197
315 303 314 299 303 319 325 321 313 318 308 301 278 260 247 240 264 284 293 0 341 339 328 324 301 292 273 241 235 221 318 187 198 195 197 196 198 208 196 200 208 217 210 233 202 211 215 223 195 194 188 179 199 200 208 188 198 197 199 213 217 216 217 236 216 238 228 217 214 191 211 188 213 81 62 182 202 210 221 224 223 219 218 218 206 201 198 198
303 347 316 331 334 342 326 328 316 311 297 287 277 257 244 256 265 20 350 351 338 340 328 318 271 259 260 249 149 244 151 306 167 218 200 206 201 207 202 200 204 206 214 217 195 208 203 222 170 180 198 191 193 191 202 192 200 182 196 209 212 206 220 239 257 287 328 276 234 198 221 240 284 264 232 201 198 198 199 207 210 212 210 208 204 200 198 199
336 325 335 331 338 343 328 320 318 301 271 268 273 261 297 310 354 346 335 331 335 323 319 322 309 340 251 243 180 167 110 266 213 215 207 193 191 55 124 65 14 157 350 306 221 215 214 207 170 173 191 193 189 193 197 195 221 168 206 208 198 215 234 227 246 204 223 236 233 212 227 222 214 257 207 208 208 206 208 209 209 207 203 200 202 203 200 201
322 320 290 324 354 336 332 322 306 280 270 270 262 277 316 290 338 341 335 325 321 320 303 292 300 291 296 323 218 17 346 265 149 197 226 186 171 359 348 356 69 351 348 305 290 192 222 210 169 187 187 182 183 187 201 204 209 224 208 175 194 182 206 213 237 227 214 224 239 231 235 242 230 222 138 204 210 208 207 206 212 210 207 204 201 203 204 205
311 306 306 18 345 339 331 314 290 277 286 266 267 266 16 337 330 324 336 328 307 297 290 278 290 288 314 305 319 311 328 270 360 229 224 148 224 44 44 334 170 358 320 311 236 276 210 233 156 182 189 172 185 188 202 194 198 222 217 201 203 207 210 196 207 241 235 243 232 233 223 240 219 242 235 208 207 214 209 204 210 213 207 206 205 204 199 200
343 327 16 15 349 332 328 302 275 274 283 305 325 314 336 315 327 332 329 326 314 300 274 292 286 280 277 281 308 302 322 297 289 325 277 52 49 55 35 12 353 327 330 271 265 259 234 229 240 166 188 173 195 194 203 187 186 194 206 211 188 215 204 226 204 217 221 235 241 251 235 226 232 217 223 225 212 206 204 209 210 216 217 210 211 210 200 196
311 278 358 14 346 332 317 290 305 343 324 338 333 334 323 325 328 314 325 324 313 289 284 283 286 277 290 291 272 281 291 289 283 273 333 104 353 157 43 1 334 331 302 221 226 212 229 197 229 156 189 193 205 189 204 194 193 196 197 206 197 193 199 202 215 203 228 232 236 240 247 264 89 237 200 230 220 217 222 230 212 212 217 220 216 214 212 200
332 340 357 355 342 327 320 316 22 349 349 359 349 333 328 338 308 325 330 336 316 310 286 280 281 276 269 269 280 273 289 286 298 286 39 336 62 17 32 348 349 307 287 196 204 124 306 265 219 204 193 200 209 190 201 207 194 197 195 204 198 204 211 208 214 194 213 233 249 251 273 265 89 111 126 95 138 194 208 213 228 225 228 217 215 219 206 205
351 324 328 338 340 327 321 360 1 353 3 358 335 318 330 331 324 334 337 343 330 336 314 283 272 281 265 270 280 280 259 266 315 277 86 91 58 25 9 356 341 351 290 76 319 71 258 217 208 230 202 203 213 181 191 208 197 203 209 209 202 210 206 212 219 209 216 210 217 222 238 224 124 133 271 256 244 235 210 212 222 226 214 220 223 233 214 181
324 314 320 358 343 329 337 14 352 352 355 340 339 336 351 343 345 338 343 353 353 340 327 310 305 303 301 293 272 264 265 256 170 279 190 288 80 19 15 4 351 33 350 46 302 54 213 205 226 200 213 172 190 182 204 206 212 214 207 205 212 210 208 216 224 228 238 221 220 210 228 223 151 173 163 132 168 152 172 179 216 238 211 223 224 211 165 192
321 292 333 351 354 341 17 12 357 342 347 342 335 338 350 343 18 345 342 341 16 345 322 316 331 321 289 297 265 255 246 262 286 93 336 49 68 22 29 6 3 26 13 10 332 305 268 202 197 208 200 196 190 191 195 194 203 207 218 205 208 213 206 206 214 212 231 218 222 224 222 110 96 162 150 158 160 194 270 289 228 221 258 258 249 152 165 200
2 342 356 342 345 323 20 4 345 344 336 346 332 346 332 332 357 355 352 333 38 342 318 297 334 328 315 326 255 227 248 241 267 271 254 189 57 74 16 7 13 16 356 344 343 287 243 261 238 253 253 231 232 31 21 321 194 205 203 214 205 208 209 213 218 220 218 211 231 228 242 167 166 163 181 157 157 165 197 220 220 221 262 234 124 207 224 202
317 354 348 342 330 350 347 342 349 342 340 338 317 341 327 338 346 337 7 319 23 357 325 32 17 1 350 346 349 302 242 252 231 240 286 336 11 4 63 5 19 17 335 339 359 302 234 203 207 283 313 14 1 347 15 350 210 201 203 198 214 210 209 211 212 219 205 218 232 219 214 237 192 163 161 185 244 245 259 288 286 247 54 350 347 336 264 226
344 359 341 28 311 320 332 334 340 328 324 323 323 323 324 338 340 346 342 3 340 29 353 88 12 0 346 340 329 307 329 279 248 239 283 22 337 353 192 100 7 25 340 12 3 1 326 225 135 264 255 359 324 348 353 9 339 60 201 197 200 204 210 217 223 226 220 226 239 201 217 225 235 239 234 244 241 263 268 266 285 321 306 300 345 322 326 301
332 329 321 350 311 322 311 314 316 314 310 330 314 313 333 334 335 352 341 315 325 17 27 333 349 350 340 337 328 309 352 292 160 20 360 356 337 337 259 165 114 19 353 1 6 6 304 176 20 306 306 285 197 285 231 216 113 229 229 213 209 211 217 228 236 234 235 242 246 254 242 236 232 244 252 258 262 261 269 275 282 281 282 298 306 299 307 296
352 338 325 325 302 300 308 312 310 308 312 338 295 21 329 328 333 341 329 327 318 359 358 340 343 342 333 329 317 298 332 343 345 333 342 345 307 20 325 319 343 4 351 357 346 18 311 83 359 335 277 225 203 205 203 236 266 258 234 239 229 221 227 225 230 232 245 249 246 250 255 259 246 307 315 320 327 325 304 283 282 291 296 296 296 294 288 277
318 319 315 312 308 315 315 311 313 315 306 316 308 348 324 335 332 340 317 334 13 6 340 336 331 326 322 317 323 313 322 327 318 309 313 315 295 331 325 300 346 328 341 338 1 333 310 349 17 295 254 218 180 205 203 264 261 260 252 237 228 219 220 214 220 219 227 231 241 250 253 247 247 252 260 259 267 271 272 275 278 277 278 282 284 283 277 264
298 297 285 305 291 313 306 311 308 304 299 345 328 322 314 318 320 329 322 85 223 178 258 315 319 304 299 309 313 310 315 308 304 298 293 288 285 284 277 282 293 302 314 308 331 302 324 324 299 245 228 213 137 191 239 276 275 252 237 228 225 225 229 227 225 221 225 228 229 232 244 257 264 258 258 253 252 256 257 260 266 268 270 274 278 281 283 281